Weather Roundup
Issued by NWS Springfield, MO

Home | Current Version | Previous Version | Text Only | Print | Product List | Glossary On
Versions: 1 2 3 4 5 6 7 8 9 10 11 12 13 14 15 16 17 18 19 20 21 22 23 24 25 26 27 28 29 30 31 32 33 34 35 36 37 38 39 40 41 42 43 44 45 46 47 48 49 50
000
NZUS99 KSGF 291807
HRRSGF

HOURLY WEATHER
NATIONAL WEATHER SERVICE SPRINGFIELD MO
1200 PM CST THU JAN 29 2015

......SGF CWA......

CITY           SKY/WX    TMP DP  RH WIND       PRES   REMARKS
SPRINGFIELD    CLOUDY    39  30  70 NW18      30.30R WCI  30
6HR MIN TEMP:  39; 6HR MAX TEMP:  46;

JOPLIN         CLOUDY    40  29  64 N20G28    30.38R WCI  30
6HR MIN TEMP:  40; 6HR MAX TEMP:  47;

WEST PLAINS    CLOUDY    41  32  70 NW14G24   30.22R
6HR MIN TEMP:  41; 6HR MAX TEMP:  50;

ROLLA          CLOUDY    38  28  67 NW21G28   30.20R WCI  28
6HR MIN TEMP:  38; 6HR MAX TEMP:  44;

OSAGE BEACH    CLOUDY    39  27  60 NW8G17    30.27R WCI  34
BRANSON        CLOUDY    41  34  75 NW17G29   30.29R

......SURROUNDING SGF CWA......

CITY           SKY/WX    TMP DP  RH WIND       PRES   REMARKS
CHANUTE        CLOUDY    45  30  55 NW20G30   30.40R
PARSONS        CLOUDY    47  31  53 N18       30.40S
COFFEYVILLE    CLOUDY    45  30  55 N22G30    30.41S
EMPORIA        CLOUDY    43  28  55 N22G29    30.41R
GROVE OK       CLOUDY    45  32  61 N16G26    30.40R
ROGERS AR      CLOUDY    41  32  70 NW15G25   30.33R
SILOAM SPRINGS CLOUDY    43  28  56 N15G30    30.35R
HARRISON AR    CLOUDY    41  35  79 NW15G30   30.27R
NEAR YELLVILLE CLOUDY    48  36  61 NW17G24   30.24R

......KANSAS AND MISSOURI......

CITY           SKY/WX    TMP DP  RH WIND       PRES   REMARKS
KANSAS CTY INT CLOUDY    40  27  59 N21G26    30.35R WCI  30
DOWNTOWN KC    CLOUDY    42  26  53 NW17G28   30.35R
COLUMBIA       CLOUDY    40  28  62 NW18      30.23S WCI  31
SEDALIA        CLOUDY    41  29  62 NW20G25   30.29S
ST JOSEPH      CLOUDY    40  27  59 NW25G31   30.37  WCI  29
ST LOUIS       CLOUDY    42  30  62 NW14G25   30.15R
SPIRIT OF STL  CLOUDY    42  29  59 NW17G26   30.17R
KIRKSVILLE     CLOUDY    37  30  75 NW18G25   30.23R WCI  27
WICHITA        PTSUNNY   45  27  49 N23G33    30.45R
TOPEKA         CLOUDY    42  28  57 NW21G31   30.41R
OLATHE         CLOUDY    41  27  57 N21G28    30.35R

......TENNESSEE......

CITY           SKY/WX    TMP DP  RH WIND       PRES   REMARKS
MEMPHIS        CLOUDY    63  44  50 W12G18    30.11F
NASHVILLE      MOSUNNY   62  38  40 SW14G21   30.03F

......ARKANSAS.......

CITY           SKY/WX    TMP DP  RH WIND       PRES   REMARKS
FAYETTEVILLE   CLOUDY    43  34  70 N13G25    30.31R
FT SMITH       MOSUNNY   55  35  47 N23       30.29R
LITTLE ROCK    CLOUDY    64  36  35 NW16G24   30.16R

......OKLAHOMA.......

CITY           SKY/WX    TMP DP  RH WIND       PRES   REMARKS
TULSA          PTSUNNY   49  31  49 N24G32    30.39R
PONCA CITY     CLOUDY    49  29  46 N22       30.45R
MCALESTER      PTSUNNY   57  36  45 N20       30.34R
OKLAHOMA CITY  CLOUDY    48  30  49 N26G35    30.40R

......IOWA............

CITY           SKY/WX    TMP DP  RH WIND       PRES   REMARKS
DES MOINES     CLOUDY    34  25  69 N17G29    30.29R WCI  23
QUAD CITIES    CLOUDY    36  30  79 NW17G26   30.08R WCI  26

......ILLINOIS........

CITY           SKY/WX    TMP DP  RH WIND       PRES   REMARKS
QUINCY         CLOUDY    37  31  78 NW24G32   30.15R WCI  26
CHICAGO        CLOUDY    33  26  75 NW20G25   29.93R WCI  21




USA.gov is the U.S. government's official web portal to all federal, state and local government web resources and services.